Location: Amsterdam
(30.7274°N, 84.4357°W)
Time: 20:36:07
(UTC+00:00)

Injun/Solrad 3 - Pass Details

Date: 24 February 2026
Orbit: 872 x 984 km, 66.8° (Epoch: 8 March)

Event Time Altitude Azimuth Distance (km) Brightness Sun altitude
Rises 00:23:56 0° 341° (NNW) 3,600 11.2 -11.9°
Reaches altitude 10° 00:26:33 10° 348° (NNW) 2,669 10.4 -12.4°
Maximum altitude 00:32:34 48° 61° (ENE) 1,244 8.2 -13.7°
Drops below altitude 10° 00:38:40 10° 135° (SE) 2,717 9.9 -15.0°
Enters shadow 00:39:41 - 138° (SE) 3,074 10.2 -15.3°
Sets 00:41:21 0° 141° (SE) 3,669 - -15.6°
